Weather History for KI75 - August, 2013

Change the Weather History Date:

Friday, August 23, 2013

  Actual Average (KLWD) Record (KLWD)
Temperature  
Mean Temperature 77 °F 73 °F  
Max Temperature 88 °F 83 °F - ()
Min Temperature 66 °F 63 °F - ()
Degree Days  
Heating Degree Days 0 0  
Month to date heating degree days 0  
Since 1 June heating degree days 21  
Since 1 July heating degree days 2  
Cooling Degree Days 12 8  
Month to date cooling degree days 217  
Year to date cooling degree days 780  
Since 1 June cooling degree days 726  
Growing Degree Days 27 (Base 50)    
Moisture  
Dew Point 67 °F    
Average Humidity 77    
Maximum Humidity 95    
Minimum Humidity 48    
Precipitation  
Precipitation 0.00 in 0.13 in - ()
Month to date precipitation 3.08  
Sea Level Pressure  
Sea Level Pressure 30.09 in    
Wind  
Wind Speed 5 mph (ESE)    
Max Wind Speed 10 mph    
Max Gust Speed -    
Visibility 7 miles    
Events Fog    
T = Trace of Precipitation, MM = Missing Value Source: NWS Daily Summary

Daily Weather History Graph

Daily Weather History Graph

Search for Another Location

Airport or City:

Trip Planner

Search our weather history database for the weather conditions in past years. The results will help you decide how hot, cold, wet, or windy it might be!

Date:

Astronomy

Aug. 23, 2013 Rise Set
Actual Time 6:32 AM CDT 8:01 PM CDT
Civil Twilight 6:03 AM CDT 8:29 PM CDT
Nautical Twilight 5:29 AM CDT 9:04 PM CDT
Astronomical Twilight 4:52 AM CDT 9:41 PM CDT
Moon 9:18 PM CDT (8/23) 9:30 AM CDT (8/23)
Length of Visible Light 14h 26m
Length of Day
13h 28m
Waning Gibbous, 91% of the Moon is Illuminated
Aug 23
Waning Gibbous
Aug 28
Last Quarter
Sep 5
New
Sep 12
First Quarter
Sep 19
Full

Hourly Weather History & Observations

Time (CDT) Temp. Heat Index Dew Point Humidity Pressure Visibility Wind Dir Wind Speed Gust Speed Precip Events Conditions
12:15 AM 67.6 °F - 64.6 °F 90% 30.10 in 10.0 mi East 3.5 mph - N/A   Clear
12:35 AM 67.8 °F - 64.8 °F 90% 30.10 in 10.0 mi East 3.5 mph - N/A   Clear
12:55 AM 67.6 °F - 65.1 °F 92% 30.10 in 7.0 mi East 3.5 mph - N/A   Clear
1:15 AM 67.8 °F - 65.3 °F 92% 30.10 in 7.0 mi ESE 4.6 mph - N/A   Clear
1:35 AM 67.6 °F - 65.3 °F 92% 30.10 in 7.0 mi East 3.5 mph - N/A   Clear
1:55 AM 67.6 °F - 65.3 °F 92% 30.10 in 7.0 mi ESE 3.5 mph - N/A   Clear
2:15 AM 66.9 °F - 64.6 °F 92% 30.10 in 5.0 mi East 3.5 mph - N/A   Clear
2:35 AM 67.1 °F - 64.8 °F 92% 30.10 in 5.0 mi East 3.5 mph - N/A   Clear
2:55 AM 67.3 °F - 65.3 °F 93% 30.10 in 5.0 mi East 4.6 mph - N/A   Clear
3:15 AM 67.1 °F - 65.1 °F 93% 30.11 in 5.0 mi East 3.5 mph - N/A   Clear
3:35 AM 67.3 °F - 65.3 °F 93% 30.11 in 5.0 mi ESE 4.6 mph - N/A   Mostly Cloudy
3:55 AM 67.5 °F - 65.5 °F 93% 30.11 in 5.0 mi ESE 3.5 mph - N/A   Mostly Cloudy
4:15 AM 67.5 °F - 65.5 °F 93% 30.11 in 5.0 mi ESE 3.5 mph - N/A   Scattered Clouds
4:35 AM 66.7 °F - 64.8 °F 93% 30.11 in 3.0 mi East 3.5 mph - N/A   Clear
4:55 AM 66.6 °F - 64.8 °F 94% 30.11 in 3.0 mi East 3.5 mph - N/A   Clear
5:15 AM 66.4 °F - 64.6 °F 94% 30.10 in 2.5 mi East 3.5 mph - N/A   Clear
5:35 AM 66.7 °F - 65.1 °F 95% 30.11 in 3.0 mi ESE 4.6 mph - N/A   Clear
5:55 AM 66.4 °F - 64.8 °F 95% 30.11 in 2.5 mi ESE 4.6 mph - N/A   Clear
6:15 AM 66.6 °F - 64.9 °F 95% 30.11 in 2.5 mi ESE 4.6 mph - N/A   Clear
6:35 AM 66.7 °F - 65.3 °F 95% 30.11 in 2.0 mi East 3.5 mph - N/A   Clear
6:55 AM 67.1 °F - 65.3 °F 94% 30.12 in 1.0 mi East 3.5 mph - N/A   Overcast
7:15 AM 67.6 °F - 66.0 °F 95% 30.12 in 0.2 mi ESE 5.8 mph - N/A Fog Fog
7:35 AM 68.2 °F - 66.6 °F 95% 30.12 in 0.2 mi ESE 4.6 mph - N/A Fog Fog
7:55 AM 68.9 °F - 67.1 °F 94% 30.12 in 0.2 mi ESE 4.6 mph - N/A Fog Fog
8:15 AM 69.3 °F - 67.6 °F 95% 30.12 in 0.2 mi ESE 5.8 mph - N/A Fog Fog
8:35 AM 70.0 °F - 68.4 °F 95% 30.13 in 0.2 mi SE 5.8 mph - N/A Fog Fog
8:55 AM 70.3 °F - 68.7 °F 95% 30.12 in 0.5 mi ESE 8.1 mph - N/A Fog Fog
9:15 AM 70.7 °F - 69.1 °F 95% 30.13 in 1.0 mi ESE 5.8 mph - N/A   Overcast
9:35 AM 71.1 °F - 69.4 °F 95% 30.13 in 2.0 mi ESE 4.6 mph - N/A   Overcast
9:55 AM 71.6 °F - 69.8 °F 94% 30.13 in 4.0 mi SE 4.6 mph - N/A   Overcast
10:15 AM 73.2 °F - 69.8 °F 89% 30.13 in 5.0 mi SE 6.9 mph - N/A   Overcast
10:35 AM 74.3 °F - 69.8 °F 86% 30.14 in 7.0 mi SE 5.8 mph - N/A   Overcast
10:55 AM 75.2 °F - 69.6 °F 83% 30.14 in 7.0 mi ESE 8.1 mph - N/A   Overcast
11:15 AM 75.9 °F - 69.6 °F 81% 30.14 in 7.0 mi ESE 6.9 mph - N/A   Overcast
11:35 AM 77.2 °F - 70.0 °F 78% 30.13 in 10.0 mi ESE 6.9 mph - N/A   Overcast
11:55 AM 78.8 °F - 70.2 °F 75% 30.13 in 10.0 mi SE 6.9 mph - N/A   Overcast
12:15 PM 79.3 °F - 70.2 °F 73% 30.12 in 10.0 mi ESE 6.9 mph - N/A   Mostly Cloudy
12:35 PM 80.4 °F 83.9 °F 70.7 °F 72% 30.11 in 10.0 mi ESE 6.9 mph - N/A   Clear
12:55 PM 81.9 °F 86.0 °F 70.7 °F 69% 30.11 in 10.0 mi SE 5.8 mph - N/A   Clear
1:15 PM 83.1 °F 87.6 °F 70.9 °F 66% 30.10 in 10.0 mi ESE 6.9 mph - N/A   Clear
1:35 PM 84.0 °F 88.4 °F 70.2 °F 63% 30.10 in 10.0 mi SE 4.6 mph - N/A   Scattered Clouds
1:55 PM 84.7 °F 89.1 °F 70.0 °F 61% 30.09 in 10.0 mi SE 6.9 mph - N/A   Scattered Clouds
2:15 PM 85.3 °F 89.4 °F 69.4 °F 59% 30.09 in 10.0 mi ESE 5.8 mph - N/A   Mostly Cloudy
2:35 PM 85.8 °F 89.4 °F 68.4 °F 56% 30.08 in 10.0 mi SE 5.8 mph - N/A   Scattered Clouds
2:55 PM 86.2 °F 89.4 °F 68.0 °F 54% 30.08 in 10.0 mi SE 5.8 mph - N/A   Scattered Clouds
3:15 PM 86.5 °F 88.7 °F 66.0 °F 50% 30.07 in 10.0 mi ESE 4.6 mph - N/A   Scattered Clouds
3:35 PM 86.5 °F 89.0 °F 66.4 °F 51% 30.06 in 10.0 mi ESE 5.8 mph - N/A   Clear
3:55 PM 88.2 °F 90.9 °F 66.6 °F 49% 30.06 in 10.0 mi ESE 6.9 mph - N/A   Clear
4:15 PM 88.0 °F 91.0 °F 67.1 °F 50% 30.06 in 10.0 mi ESE 6.9 mph - N/A   Scattered Clouds
4:35 PM 88.5 °F 91.2 °F 66.7 °F 48% 30.05 in 10.0 mi ESE 6.9 mph - N/A   Scattered Clouds
4:55 PM 87.3 °F 89.8 °F 66.6 °F 50% 30.05 in 10.0 mi ESE 8.1 mph - N/A   Scattered Clouds
5:15 PM 86.7 °F 89.6 °F 67.1 °F 52% 30.05 in 10.0 mi ESE 5.8 mph - N/A   Scattered Clouds
5:35 PM 86.9 °F 89.9 °F 67.1 °F 52% 30.05 in 10.0 mi ESE 5.8 mph - N/A   Clear
5:55 PM 86.0 °F 88.8 °F 67.1 °F 53% 30.04 in 10.0 mi ESE 6.9 mph - N/A   Clear
6:15 PM 85.3 °F 87.9 °F 66.9 °F 54% 30.04 in 10.0 mi ESE 6.9 mph - N/A   Clear
6:35 PM 84.4 °F 87.3 °F 67.8 °F 57% 30.04 in 10.0 mi East 5.8 mph - N/A   Clear
6:55 PM 83.7 °F 86.7 °F 68.0 °F 59% 30.04 in 10.0 mi East 5.8 mph - N/A   Clear
7:15 PM 82.2 °F 85.3 °F 68.4 °F 63% 30.04 in 10.0 mi East 4.6 mph - N/A   Scattered Clouds
7:35 PM 81.0 °F 83.9 °F 68.7 °F 66% 30.04 in 10.0 mi East 3.5 mph - N/A   Scattered Clouds
7:55 PM 79.3 °F - 68.7 °F 70% 30.05 in 10.0 mi East 4.6 mph - N/A   Mostly Cloudy
8:15 PM 78.8 °F - 68.4 °F 70% 30.05 in 10.0 mi East 4.6 mph - N/A   Scattered Clouds
8:35 PM 78.6 °F - 68.2 °F 70% 30.06 in 10.0 mi ESE 4.6 mph - N/A   Mostly Cloudy
8:55 PM 78.1 °F - 68.2 °F 71% 30.06 in 10.0 mi ESE 4.6 mph - N/A   Mostly Cloudy
9:15 PM 77.4 °F - 67.8 °F 72% 30.07 in 10.0 mi ESE 4.6 mph - N/A   Scattered Clouds
9:35 PM 76.6 °F - 67.5 °F 73% 30.07 in 10.0 mi ESE 5.8 mph - N/A   Clear
9:55 PM 76.6 °F - 67.3 °F 73% 30.07 in 10.0 mi ESE 6.9 mph - N/A   Scattered Clouds
10:15 PM 77.2 °F - 67.1 °F 71% 30.07 in 10.0 mi ESE 8.1 mph - N/A   Mostly Cloudy
10:35 PM 77.0 °F - 66.6 °F 70% 30.07 in 10.0 mi ESE 10.4 mph - N/A   Mostly Cloudy
10:55 PM 76.5 °F - 66.4 °F 71% 30.07 in 10.0 mi ESE 8.1 mph - N/A   Scattered Clouds
11:15 PM 76.3 °F - 66.4 °F 71% 30.08 in 10.0 mi ESE 8.1 mph - N/A   Scattered Clouds
11:35 PM 75.4 °F - 66.4 °F 73% 30.08 in 10.0 mi ESE 8.1 mph - N/A   Scattered Clouds
11:55 PM 74.7 °F - 66.4 °F 75% 30.08 in 10.0 mi ESE 8.1 mph - N/A   Clear